[[{"header":{"parameterUnit":"m.s-1","parameterCategory":1,"la1":30.2991,"la2":30.254,"lo1":-89.0895,"lo2":-89.0444,"dy":0.0017,"dx":0.0017,"nx":28,"ny":28,"refTime":"2024-04-30T03:00:00:Z","depth":0,"parameterNumber":2,"parameterNumberName":"U-component_of_WINDS"},"data":[0,0,0,0,0,0,0,0,0,0,0,0,0,0,0,0,0,0,0,0,0,0,0,0,0,0,0,0,0,0,0,0,0,0,0,0,0,0,0,0,0,0,0,0,0,0,0,0,0,0,0,0,0,0,0,0,0,0,-0.7636,-0.7636,0,-0.7616,-0.7615,-0.7615,-0.7604,-0.7604,-0.7603,-0.7603,-0.7582,-0.7581,-0.758,0,0,0,0,0,0,0,0,0,0,0,0,0,-0.7665,-0.7665,-0.7636,-0.7636,-0.7636,-0.7616,-0.7615,-0.7615,-0.7604,-0.7604,-0.7603,-0.7603,-0.7582,-0.7581,-0.758,0,0,0,0,0,0,0,0,0,0,0,0,0,-0.765,-0.7665,-0.7636,-0.7628,-0.7627,-0.7616,-0.7615,-0.7615,-0.7604,-0.7604,-0.7603,-0.7603,-0.7582,-0.7581,-0.758,-0.7576,0,0,-0.7578,-0.7577,0,0,0,0,0,0,0,0,-0.7651,-0.7649,-0.7629,-0.7628,-0.7627,-0.7612,-0.7618,-0.7602,-0.7604,-0.7612,-0.7603,-0.7603,-0.7592,-0.759,-0.7586,-0.7575,-0.7574,-0.7578,-0.7577,-0.7577,-0.7577,0,0,0,0,0,0,0,-0.7652,-0.7649,-0.7628,-0.7629,-0.7628,-0.7625,-0.7622,-0.7615,-0.7603,-0.7612,-0.7611,-0.7608,-0.7591,-0.7587,-0.7586,-0.7574,-0.7578,-0.7577,-0.7577,-0.7576,-0.7558,-0.7558,0,0,0,0,0,0,-0.7654,-0.765,-0.7629,-0.7627,-0.7639,-0.7624,-0.7622,-0.7617,-0.7603,-0.76,-0.7608,-0.7608,-0.7589,-0.7587,-0.7585,-0.7579,-0.7577,-0.7576,-0.7576,-0.7558,-0.7558,-0.7558,0,0,0,0,0,0,-0.7655,-0.7652,-0.763,-0.7639,-0.7636,-0.7624,-0.7619,-0.7617,-0.7613,-0.76,-0.7598,-0.7607,-0.7588,-0.7586,-0.7578,-0.7578,-0.7576,-0.7575,-0.7558,-0.7558,-0.7558,-0.7567,0,0,0,0,0,0,-0.7656,-0.7653,-0.7651,-0.7639,-0.7635,-0.7624,-0.7619,-0.7616,-0.7611,-0.761,-0.7598,-0.7596,-0.7588,-0.758,-0.7578,-0.7577,-0.7574,-0.7558,-0.7558,-0.7558,-0.7567,-0.7567,-0.7568,0,0,0,0,0,-0.7657,-0.7654,-0.7651,-0.7649,-0.7633,-0.7624,-0.7622,-0.7613,-0.7611,-0.7609,-0.7602,-0.7596,-0.7578,-0.7579,-0.7577,-0.7576,-0.7558,-0.7558,-0.7558,-0.7567,-0.7567,-0.7568,0,0,0,0,0,0,-0.7667,-0.7653,-0.7649,-0.7642,-0.7634,-0.7622,-0.7619,-0.7614,-0.7607,-0.7606,-0.7596,-0.7593,-0.7586,-0.758,-0.7581,-0.7571,-0.7568,-0.7567,-0.7575,-0.7576,-0.7576,-0.7578,-0.7574,0,0,0,0,0,-0.7668,-0.7662,-0.765,-0.7645,-0.7642,-0.7631,-0.7627,-0.7621,-0.7612,-0.7609,-0.76,-0.7592,-0.7584,-0.758,-0.7572,-0.7566,-0.7563,-0.7564,-0.7565,-0.7565,-0.7565,-0.7561,-0.7561,-0.7558,-0.7558,-0.7558,0,0,-0.7671,-0.7663,-0.7659,-0.7647,-0.764,-0.7634,-0.7628,-0.7622,-0.7617,-0.7608,-0.76,-0.7594,-0.7583,-0.7577,-0.7573,-0.7571,-0.7565,-0.7565,-0.7566,-0.7565,-0.7561,-0.7561,-0.7561,-0.7558,-0.7558,-0.7558,0,0,-0.7673,-0.7666,-0.7662,-0.7655,-0.7645,-0.7638,-0.7637,-0.7625,-0.762,-0.7613,-0.7605,-0.7599,-0.7587,-0.758,-0.7575,-0.7574,-0.7569,-0.7572,-0.7575,-0.7571,-0.7571,-0.7572,-0.7571,-0.7571,-0.7572,-0.7572,-0.7572,0,-0.7678,-0.7669,-0.766,-0.7654,-0.7649,-0.764,-0.7635,-0.7629,-0.7617,-0.7613,-0.7612,-0.7595,-0.7588,-0.7579,-0.7579,-0.7575,-0.7574,-0.7573,-0.7572,-0.7572,-0.7572,-0.7572,-0.7572,-0.7572,-0.7572,-0.7572,-0.7572,0,-0.7675,-0.7668,-0.7666,-0.7654,-0.7649,-0.7644,-0.7634,-0.7629,-0.7624,-0.7617,-0.7609,-0.76,-0.759,-0.7588,-0.7583,-0.7578,-0.7578,-0.7574,-0.7571,-0.7573,-0.7572,-0.7572,-0.7573,-0.7573,-0.7572,-0.7572,0,0,-0.7683,-0.7667,-0.7666,-0.766,-0.7648,-0.7643,-0.7637,-0.7628,-0.7624,-0.7616,-0.7611,-0.76,-0.7597,-0.7591,-0.7585,-0.7582,-0.7582,-0.7579,-0.7578,-0.7579,-0.7576,-0.7579,-0.7579,-0.7578,-0.7578,-0.7578,-0.7577,0,-0.7683,-0.7672,-0.7664,-0.7656,-0.765,-0.7642,-0.7637,-0.7629,-0.7622,-0.7616,-0.7609,-0.7601,-0.7598,-0.7594,-0.759,-0.7583,-0.7581,-0.7583,-0.7573,-0.7573,-0.7575,-0.7578,-0.7581,-0.758,-0.7577,-0.7577,-0.7577,0,-0.7681,-0.7674,-0.7665,-0.7654,-0.7651,-0.7647,-0.7638,-0.7632,-0.7622,-0.7618,-0.7611,-0.7605,-0.7598,-0.7596,-0.7586,-0.7588,-0.7583,-0.7579,-0.7579,-0.7577,-0.7575,-0.7577,-0.758,-0.758,-0.7576,-0.7576,-0.7576,0,-0.7688,-0.7675,-0.7668,-0.7664,-0.7651,-0.7648,-0.7642,-0.7633,-0.7628,-0.762,-0.7616,-0.7608,-0.7603,-0.7596,-0.7587,-0.7587,-0.7579,-0.7576,-0.7574,-0.7575,-0.7573,-0.7573,-0.7575,-0.7571,-0.7571,-0.7571,-0.7571,0,-0.7688,-0.7683,-0.7671,-0.7667,-0.7661,-0.7652,-0.7646,-0.764,-0.7632,-0.7626,-0.7619,-0.7613,-0.7603,-0.7596,-0.7589,-0.7582,-0.758,-0.7576,-0.7574,-0.7577,-0.7577,-0.7573,-0.7573,-0.7571,-0.7571,-0.7571,-0.7571,0,-0.7694,-0.7685,-0.7678,-0.7666,-0.7663,-0.7659,-0.7649,-0.7644,-0.7637,-0.763,-0.7628,-0.7617,-0.7609,-0.76,-0.7589,-0.7584,-0.7578,-0.7575,-0.7581,-0.758,-0.7579,-0.7579,-0.7579,-0.7578,-0.7574,-0.7574,-0.7574,0,-0.7695,-0.7691,-0.7679,-0.7675,-0.7669,-0.7662,-0.7657,-0.7648,-0.7643,-0.7632,-0.7629,-0.762,-0.7613,-0.76,-0.7591,-0.7583,-0.758,-0.758,-0.7578,-0.7581,-0.758,-0.758,-0.7579,-0.7581,-0.7581,-0.7581,-0.7581,0,-0.7698,-0.7694,-0.7686,-0.7678,-0.7672,-0.7665,-0.7657,-0.7654,-0.7643,-0.7638,-0.763,-0.7624,-0.7613,-0.7604,-0.7594,-0.7588,-0.7583,-0.7582,-0.7581,-0.7583,-0.7586,-0.7584,-0.7582,-0.7582,-0.7582,-0.7581,-0.7581,-0.7581,-0.7701,-0.7697,-0.7688,-0.768,-0.7673,-0.7666,-0.7662,-0.7654,-0.7647,-0.7638,-0.7633,-0.7624,-0.7615,-0.7601,-0.7596,-0.7589,-0.7587,-0.7586,-0.7586,-0.7585,-0.7586,-0.7588,-0.7587,-0.7587,-0.7587,-0.7587,-0.7587,0,-0.7703,-0.7696,-0.7689,-0.7679,-0.7673,-0.7669,-0.766,-0.7655,-0.7648,-0.764,-0.7633,-0.7623,-0.7615,-0.7606,-0.7597,-0.7593,-0.759,-0.7591,-0.7591,-0.759,-0.7588,-0.759,-0.7593,-0.7593,-0.7593,-0.7593,-0.7593,-0.7593,-0.7703,-0.7696,-0.7691,-0.7681,-0.7674,-0.7666,-0.7662,-0.7655,-0.7649,-0.7638,-0.7632,-0.7625,-0.7617,-0.7607,-0.7599,-0.7597,-0.7593,-0.7595,-0.7591,-0.759,-0.759,-0.7589,-0.759,-0.7594,-0.7594,-0.7593,-0.7593,-0.7593]},{"header":{"parameterUnit":"m.s-1","parameterCategory":1,"la1":30.2991,"la2":30.254,"lo1":-89.0895,"lo2":-89.0444,"dy":0.0017,"dx":0.0017,"nx":28,"ny":28,"refTime":"2024-04-30T03:00:00:Z","depth":0,"parameterNumber":3,"parameterNumberName":"V-component_of_WINDS"},"data":[0,0,0,0,0,0,0,0,0,0,0,0,0,0,0,0,0,0,0,0,0,0,0,0,0,0,0,0,0,0,0,0,0,0,0,0,0,0,0,0,0,0,0,0,0,0,0,0,0,0,0,0,0,0,0,0,0,0,1.165,1.165,0,1.1603,1.1602,1.1602,1.1569,1.1568,1.1568,1.1568,1.1517,1.1516,1.1515,0,0,0,0,0,0,0,0,0,0,0,0,0,1.1709,1.1709,1.165,1.165,1.1649,1.1603,1.1602,1.1602,1.1569,1.1568,1.1568,1.1568,1.1517,1.1516,1.1515,0,0,0,0,0,0,0,0,0,0,0,0,0,1.1675,1.1708,1.165,1.1627,1.1625,1.1603,1.1602,1.1602,1.1569,1.1568,1.1568,1.1568,1.1518,1.1516,1.1515,1.1512,0,0,1.1509,1.1509,0,0,0,0,0,0,0,0,1.1677,1.1673,1.1631,1.1629,1.1626,1.1591,1.1605,1.1571,1.1569,1.159,1.1568,1.1568,1.1542,1.1538,1.153,1.1509,1.1507,1.1509,1.1508,1.1508,1.1507,0,0,0,0,0,0,0,1.168,1.1675,1.1631,1.1631,1.1627,1.1618,1.1613,1.1598,1.1569,1.1588,1.1586,1.1581,1.154,1.1532,1.1529,1.1506,1.1509,1.1508,1.1507,1.1506,1.1481,1.1481,0,0,0,0,0,0,1.1686,1.1677,1.1633,1.163,1.1651,1.1618,1.1612,1.1603,1.1569,1.1563,1.1581,1.1579,1.1535,1.1531,1.1527,1.1521,1.1508,1.1506,1.1505,1.148,1.1481,1.1481,0,0,0,0,0,0,1.1687,1.1682,1.1635,1.1653,1.1646,1.1617,1.1607,1.1602,1.1593,1.1563,1.1558,1.1578,1.1534,1.1529,1.1516,1.1519,1.1505,1.1504,1.148,1.148,1.1481,1.151,0,0,0,0,0,0,1.1689,1.1683,1.1682,1.1653,1.1645,1.1626,1.1607,1.1601,1.1591,1.1588,1.1559,1.1554,1.1534,1.1519,1.1514,1.1516,1.1502,1.148,1.148,1.1481,1.1509,1.1512,1.1514,0,0,0,0,0,1.1691,1.1692,1.1682,1.1677,1.1644,1.1626,1.1621,1.1599,1.1591,1.159,1.1571,1.1554,1.1519,1.1518,1.1512,1.1514,1.1479,1.148,1.1481,1.1508,1.1511,1.1514,0,0,0,0,0,0,1.1721,1.1688,1.1677,1.1668,1.165,1.162,1.1618,1.1604,1.1587,1.1585,1.1557,1.1551,1.1541,1.1526,1.1524,1.1509,1.1497,1.1497,1.152,1.1523,1.1525,1.1529,1.1501,0,0,0,0,0,1.1727,1.1716,1.1687,1.1682,1.1674,1.1648,1.1639,1.1623,1.1603,1.1595,1.1575,1.1556,1.154,1.153,1.1514,1.1506,1.1499,1.1505,1.1508,1.151,1.151,1.1505,1.1507,1.1484,1.1484,1.1484,0,0,1.1739,1.1719,1.1713,1.1687,1.1672,1.166,1.1641,1.163,1.1621,1.1593,1.158,1.1564,1.1541,1.153,1.1524,1.1517,1.1515,1.1511,1.1513,1.1512,1.1506,1.1508,1.151,1.1484,1.1484,1.1484,0,0,1.1754,1.1738,1.1732,1.1717,1.1694,1.1676,1.1675,1.1647,1.1636,1.1622,1.1601,1.159,1.1564,1.1548,1.1536,1.1545,1.153,1.1541,1.1555,1.155,1.1551,1.1553,1.1556,1.1558,1.1541,1.1541,1.1541,0,1.1771,1.1754,1.1731,1.1721,1.171,1.1685,1.1679,1.1665,1.1637,1.163,1.1623,1.159,1.1572,1.1557,1.156,1.1551,1.1548,1.1544,1.1553,1.1554,1.1555,1.1558,1.1559,1.1543,1.1542,1.1542,1.1542,0,1.1776,1.1764,1.1762,1.1737,1.1726,1.1718,1.1693,1.1684,1.1669,1.1652,1.1638,1.1616,1.1595,1.1591,1.1576,1.1574,1.157,1.1559,1.1546,1.156,1.1562,1.1563,1.1545,1.1544,1.1544,1.1543,0,0,1.1809,1.1772,1.1771,1.176,1.1732,1.1722,1.1712,1.1693,1.1686,1.1667,1.1658,1.1637,1.1626,1.1613,1.1596,1.1592,1.16,1.158,1.1579,1.1585,1.1596,1.1606,1.1607,1.159,1.159,1.159,1.1598,0,1.182,1.1803,1.1782,1.1771,1.176,1.1736,1.1727,1.1709,1.1693,1.168,1.1662,1.1647,1.1634,1.1626,1.162,1.1601,1.1602,1.1599,1.1581,1.158,1.1588,1.1608,1.1618,1.1627,1.1599,1.1599,1.1599,0,1.1831,1.1815,1.1804,1.1777,1.1771,1.1764,1.1745,1.1733,1.1712,1.17,1.1686,1.1668,1.1656,1.1644,1.1627,1.1626,1.1616,1.1605,1.1605,1.1603,1.1591,1.1607,1.163,1.1631,1.16,1.16,1.16,0,1.1857,1.1832,1.1822,1.1813,1.1781,1.1777,1.1763,1.1742,1.1731,1.1714,1.1706,1.1687,1.1677,1.1662,1.1639,1.1633,1.1624,1.1611,1.1614,1.1615,1.1614,1.1614,1.1636,1.1607,1.1607,1.1607,1.1607,0,1.1872,1.1866,1.1833,1.1827,1.1819,1.1795,1.1787,1.1772,1.1752,1.1742,1.172,1.171,1.1681,1.1668,1.165,1.1638,1.1633,1.1623,1.1618,1.1625,1.1627,1.1619,1.1618,1.1608,1.1608,1.1608,1.1607,0,1.19,1.1878,1.1865,1.1836,1.1829,1.1825,1.18,1.1792,1.1775,1.1762,1.1758,1.173,1.1713,1.1689,1.1665,1.1653,1.1644,1.1636,1.1652,1.1649,1.1653,1.1653,1.1671,1.1672,1.1643,1.1644,1.1644,0,1.1911,1.1906,1.1877,1.1869,1.1856,1.1844,1.1833,1.1808,1.1798,1.1773,1.1769,1.175,1.1735,1.1709,1.1686,1.1668,1.1659,1.1667,1.1656,1.1664,1.166,1.166,1.166,1.167,1.167,1.167,1.1671,0,1.1933,1.1923,1.1909,1.1891,1.1879,1.1863,1.1847,1.1841,1.1812,1.1802,1.1785,1.1773,1.1749,1.1731,1.1709,1.1694,1.1678,1.1674,1.1674,1.1681,1.169,1.1685,1.1659,1.1674,1.1674,1.1673,1.1673,1.1673,1.1953,1.1948,1.1927,1.1911,1.1896,1.1881,1.1873,1.1855,1.1841,1.182,1.1805,1.1789,1.1767,1.1736,1.1722,1.1709,1.1702,1.1702,1.1701,1.1702,1.1704,1.1692,1.1705,1.1705,1.1705,1.1704,1.1704,0,1.1975,1.196,1.1946,1.1924,1.1912,1.1898,1.1879,1.187,1.1856,1.1837,1.1822,1.1803,1.1786,1.1761,1.1742,1.1736,1.1728,1.1732,1.1732,1.1729,1.1712,1.1714,1.1739,1.1739,1.1739,1.1739,1.1738,1.1738,1.1985,1.1975,1.1961,1.1943,1.1928,1.1913,1.1903,1.1888,1.1873,1.1853,1.1839,1.1823,1.1802,1.1781,1.1764,1.1757,1.1751,1.1757,1.1748,1.1733,1.173,1.1727,1.1729,1.1756,1.1756,1.1766,1.1766,1.1767]}]]